K4GZX-11 Weather Reports


Display with metric or nautical units.
time (UTC)temp
F
wind
direction
speed
MPH
gust
MPH
rain 1hr
in
rain 24hr
in
rain mn
in
humidity
%
barometer
mb
20260831193854 93 103 0.0 0.0 0.00 0.00 0.00 46 1019.4
20260831193343 93 103 0.0 0.0 0.00 0.00 0.00 45 1019.4
20260831192843 93 103 0.0 0.0 0.00 0.00 0.00 45 1019.5
20260831192343 93 103 0.0 0.0 0.00 0.00 0.00 45 1019.6
20260831191842 93 103 0.0 0.0 0.00 0.00 0.00 44 1019.5
20260831191342 93 103 0.0 0.0 0.00 0.00 0.00 44 1019.5
20260831190844 93 103 0.0 0.0 0.00 0.00 0.00 45 1019.6
20260831190342 93 103 0.0 0.0 0.00 0.00 0.00 45 1019.8
20260831185847 94 103 0.0 0.0 0.00 0.00 0.00 44 1019.8
20260831185354 94 103 0.0 0.0 0.00 0.00 0.00 45 1019.8
20260831184842 93 103 0.0 0.0 0.00 0.00 0.00 46 1020.1
20260831184342 93 103 0.0 0.0 0.00 0.00 0.00 45 1020.2
20260831183842 94 103 0.0 0.0 0.00 0.00 0.00 45 1020.2
20260831183342 94 103 0.0 0.0 0.00 0.00 0.00 44 1020.2
20260831182842 94 103 0.0 0.0 0.00 0.00 0.00 45 1020.3
20260831182347 95 103 0.0 0.0 0.00 0.00 0.00 44 1020.3
20260831181855 95 103 0.0 2.0 0.00 0.00 0.00 44 1020.4
20260831181342 95 103 0.0 2.0 0.00 0.00 0.00 44 1020.5
20260831180842 94 103 0.0 0.0 0.00 0.00 0.00 48 1020.5
20260831180342 92 103 0.0 0.0 0.00 0.00 0.00 48 1020.6
20260831175843 92 103 0.0 0.0 0.00 0.00 0.00 47 1020.6
20260831175342 92 103 0.0 0.0 0.00 0.00 0.00 48 1020.7
20260831174842 92 103 0.0 0.0 0.00 0.00 0.00 50 1020.7
20260831174342 92 103 0.0 0.0 0.00 0.00 0.00 49 1020.7
20260831173847 92 103 0.0 0.0 0.00 0.00 0.00 47 1020.8
20260831173354 93 103 0.0 0.0 0.00 0.00 0.00 48 1020.8
20260831172845 93 103 0.0 0.0 0.00 0.00 0.00 48 1020.9
20260831172342 92 103 0.0 0.0 0.00 0.00 0.00 49 1021.0
20260831171844 92 103 0.0 0.0 0.00 0.00 0.00 48 1021.1
20260831171352 92 103 0.0 1.0 0.00 0.00 0.00 50 1021.2
20260831170859 91 103 0.0 1.0 0.00 0.00 0.00 51 1021.2
20260831170406 91 103 0.0 0.0 0.00 0.00 0.00 52 1021.2
20260831165842 90 103 0.0 0.0 0.00 0.00 0.00 53 1021.2
20260831165342 90 103 0.0 0.0 0.00 0.00 0.00 53 1021.2
20260831164842 90 103 0.0 0.0 0.00 0.00 0.00 53 1021.3
20260831164342 90 103 0.0 2.0 0.00 0.00 0.00 53 1021.3
20260831163842 89 103 0.0 2.0 0.00 0.00 0.00 54 1021.4
20260831163342 88 103 0.0 0.0 0.00 0.00 0.00 58 1021.4
20260831162842 88 103 0.0 1.0 0.00 0.00 0.00 58 1021.4
20260831162342 88 103 0.0 1.0 0.00 0.00 0.00 58 1021.5
20260831161842 88 103 0.0 0.0 0.00 0.00 0.00 59 1021.6
20260831161342 87 103 0.0 0.0 0.00 0.00 0.00 61 1021.6
20260831160842 86 103 0.0 0.0 0.00 0.00 0.00 60 1021.7
20260831160342 86 103 0.0 0.0 0.00 0.00 0.00 62 1021.7
20260831155842 86 103 0.0 0.0 0.00 0.00 0.00 62 1021.7
20260831155347 86 103 0.0 0.0 0.00 0.00 0.00 63 1021.7
20260831154854 86 103 0.0 0.0 0.00 0.00 0.00 63 1021.7
20260831154346 86 103 0.0 1.0 0.00 0.00 0.00 63 1021.7
20260831153853 85 103 0.0 1.0 0.00 0.00 0.00 65 1021.7
20260831153401 85 103 0.0 0.0 0.00 0.00 0.00 66 1021.8
20260831152908 84 103 0.0 0.0 0.00 0.00 0.00 68 1021.8
20260831152416 84 103 0.0 0.0 0.00 0.00 0.00 69 1022.0
20260831151859 83 103 0.0 0.0 0.00 0.00 0.00 70 1022.0
20260831151406 83 103 0.0 0.0 0.00 0.00 0.00 72 1022.0
20260831150842 82 103 0.0 0.0 0.00 0.00 0.00 72 1021.9
20260831150347 82 103 0.0 0.0 0.00 0.00 0.00 73 1021.9
20260831145854 82 103 0.0 0.0 0.00 0.00 0.00 75 1021.9
20260831145342 81 103 0.0 0.0 0.00 0.00 0.00 75 1021.9
20260831144842 81 103 0.0 0.0 0.00 0.00 0.00 76 1021.9
20260831144344 81 103 0.0 0.0 0.00 0.00 0.00 77 1021.8
20260831143842 80 103 0.0 0.0 0.00 0.00 0.00 77 1021.7
20260831143342 80 103 0.0 0.0 0.00 0.00 0.00 78 1021.7
20260831142842 79 103 0.0 0.0 0.00 0.00 0.00 79 1021.6
20260831142342 79 103 0.0 0.0 0.00 0.00 0.00 81 1021.6
20260831141842 78 103 0.0 0.0 0.00 0.00 0.00 82 1021.5
20260831140952 77 103 0.0 0.0 0.00 0.00 0.00 83 1021.5
20260831140459 77 103 0.0 0.0 0.00 0.00 0.00 84 1021.6
20260831135947 76 103 0.0 0.0 0.00 0.00 0.00 85 1021.6
20260831135452 76 103 0.0 0.0 0.00 0.00 0.00 85 1021.6
20260831134959 75 103 0.0 0.0 0.00 0.00 0.00 86 1021.7
20260831134447 75 103 0.0 0.0 0.00 0.00 0.00 86 1021.6
20260831133947 75 103 0.0 0.0 0.00 0.00 0.00 86 1021.6
20260831133447 74 103 0.0 0.0 0.00 0.00 0.00 86 1021.5
20260831132947 74 103 0.0 0.0 0.00 0.00 0.00 86 1021.6
20260831132454 74 103 0.0 0.0 0.00 0.00 0.00 87 1021.6
20260831132001 73 103 0.0 0.0 0.00 0.00 0.00 86 1021.6
20260831131447 73 103 0.0 0.0 0.00 0.00 0.00 87 1021.6
20260831130952 73 103 0.0 0.0 0.00 0.00 0.00 86 1021.6
20260831130500 72 103 0.0 0.0 0.00 0.00 0.00 86 1021.7
20260831125949 72 103 0.0 0.0 0.00 0.00 0.00 86 1021.7
20260831125457 72 103 0.0 0.0 0.00 0.00 0.00 86 1021.6
20260831125004 72 103 0.0 0.0 0.00 0.00 0.00 86 1021.6
20260831124511 71 103 0.0 0.0 0.00 0.00 0.00 86 1021.6
20260831123947 71 103 0.0 0.0 0.00 0.00 0.00 86 1021.6
20260831123447 71 103 0.0 0.0 0.00 0.00 0.00 86 1021.7
20260831122949 71 103 0.0 0.0 0.00 0.00 0.00 86 1021.7
20260831122457 71 103 0.0 0.0 0.00 0.00 0.00 86 1021.7
20260831122004 70 103 0.0 0.0 0.00 0.00 0.00 86 1021.6
20260831121459 70 103 0.0 0.0 0.00 0.00 0.00 85 1021.6
20260831120952 70 103 0.0 0.0 0.00 0.00 0.00 85 1021.5
20260831120459 70 103 0.0 0.0 0.00 0.00 0.00 85 1021.6
20260831115954 70 103 0.0 0.0 0.00 0.00 0.00 85 1021.5
20260831115501 70 103 0.0 0.0 0.00 0.00 0.00 85 1021.5
20260831114947 70 103 0.0 0.0 0.00 0.00 0.00 85 1021.5
20260831114447 70 103 0.0 0.0 0.00 0.00 0.00 85 1021.4
20260831113947 70 103 0.0 0.0 0.00 0.00 0.00 84 1021.4
20260831113447 70 103 0.0 0.0 0.00 0.00 0.00 84 1021.5
20260831112947 70 103 0.0 0.0 0.00 0.00 0.00 85 1021.4
20260831112447 70 103 0.0 0.0 0.00 0.00 0.00 84 1021.3
20260831111947 70 103 0.0 0.0 0.00 0.00 0.00 84 1021.3
20260831111447 70 103 0.0 0.0 0.00 0.00 0.00 84 1021.2
20260831110947 71 103 0.0 0.0 0.00 0.00 0.00 84 1021.2
20260831110452 71 103 0.0 0.0 0.00 0.00 0.00 85 1021.1
20260831105959 71 103 0.0 0.0 0.00 0.00 0.00 85 1021.0
20260831105447 71 103 0.0 0.0 0.00 0.00 0.00 85 1021.0
20260831104947 71 103 0.0 0.0 0.00 0.00 0.00 84 1021.1
20260831104447 71 103 0.0 0.0 0.00 0.00 0.00 84 1021.0
20260831103947 71 103 0.0 0.0 0.00 0.00 0.00 84 1021.0
20260831103447 71 103 0.0 0.0 0.00 0.00 0.00 85 1020.9
20260831102952 71 103 0.0 0.0 0.00 0.00 0.00 85 1020.9
20260831102459 71 103 0.0 0.0 0.00 0.00 0.00 84 1020.9
20260831101947 71 103 0.0 0.0 0.00 0.00 0.00 84 1020.9
20260831101447 71 103 0.0 0.0 0.00 0.00 0.00 84 1020.8
20260831100952 71 103 0.0 0.0 0.00 0.00 0.00 84 1020.7
20260831100459 71 103 0.0 0.0 0.00 0.00 0.00 84 1020.7
20260831095947 71 103 0.0 0.0 0.00 0.00 0.00 85 1020.7
20260831095447 71 103 0.0 0.0 0.00 0.00 0.00 85 1020.7
20260831094947 71 103 0.0 0.0 0.00 0.00 0.00 84 1020.7
20260831094447 71 103 0.0 0.0 0.00 0.00 0.00 84 1020.7
20260831093947 71 103 0.0 0.0 0.00 0.00 0.00 84 1020.7
20260831093447 71 103 0.0 0.0 0.00 0.00 0.00 84 1020.7
20260831092947 71 103 0.0 0.0 0.00 0.00 0.00 84 1020.7
20260831092447 71 103 0.0 0.0 0.00 0.00 0.00 84 1020.7
20260831091947 71 103 0.0 0.0 0.00 0.00 0.00 84 1020.7
20260831091447 71 103 0.0 0.0 0.00 0.00 0.00 84 1020.6
20260831090951 71 103 0.0 0.0 0.00 0.00 0.00 84 1020.7
20260831090459 71 103 0.0 0.0 0.00 0.00 0.00 84 1020.6
20260831085947 71 103 0.0 0.0 0.00 0.00 0.00 84 1020.6
20260831085447 71 103 0.0 0.0 0.00 0.00 0.00 84 1020.6
20260831084947 72 103 0.0 0.0 0.00 0.00 0.00 84 1020.5
20260831084447 72 103 0.0 0.0 0.00 0.00 0.00 84 1020.6
20260831083947 72 103 0.0 0.0 0.00 0.00 0.00 84 1020.6
20260831083447 72 103 0.0 0.0 0.00 0.00 0.00 84 1020.6
20260831082949 72 103 0.0 0.0 0.00 0.00 0.00 84 1020.4
20260831082456 72 103 0.0 0.0 0.00 0.00 0.00 84 1020.3
20260831082004 72 103 0.0 0.0 0.00 0.00 0.00 84 1020.3
20260831081511 72 103 0.0 0.0 0.00 0.00 0.00 83 1020.3
20260831080947 72 103 0.0 0.0 0.00 0.00 0.00 83 1020.2
20260831080447 72 103 0.0 0.0 0.00 0.00 0.00 82 1020.2
20260831075947 72 103 0.0 0.0 0.00 0.00 0.00 83 1020.3
20260831075447 72 103 0.0 0.0 0.00 0.00 0.00 83 1020.3
20260831074947 72 103 0.0 0.0 0.00 0.00 0.00 82 1020.2
20260831074447 72 103 0.0 0.0 0.00 0.00 0.00 83 1020.2
20260831073947 72 103 0.0 0.0 0.00 0.00 0.00 83 1020.2
20260831073447 72 103 0.0 0.0 0.00 0.00 0.00 83 1020.2
20260831072947 72 103 0.0 0.0 0.00 0.00 0.00 82 1020.2
20260831072447 72 103 0.0 0.0 0.00 0.00 0.00 82 1020.2
20260831071951 72 103 0.0 0.0 0.00 0.00 0.00 82 1020.3
20260831071459 72 103 0.0 0.0 0.00 0.00 0.00 82 1020.2
20260831070947 72 103 0.0 0.0 0.00 0.00 0.00 82 1020.1
20260831070451 73 103 0.0 0.0 0.00 0.00 0.00 81 1020.1
20260831065959 73 103 0.0 0.0 0.00 0.00 0.00 81 1020.2
20260831065447 73 103 0.0 0.0 0.00 0.00 0.00 81 1020.1
20260831064947 73 103 0.0 0.0 0.00 0.00 0.00 81 1020.1
20260831064447 73 103 0.0 0.0 0.00 0.00 0.00 81 1020.1
20260831063952 73 103 0.0 0.0 0.00 0.00 0.00 81 1020.1
20260831063459 73 103 0.0 0.0 0.00 0.00 0.00 81 1020.2
20260831062952 73 103 0.0 0.0 0.00 0.00 0.00 81 1020.2
20260831062459 73 103 0.0 0.0 0.00 0.00 0.00 81 1020.2
20260831061947 73 103 0.0 0.0 0.00 0.00 0.00 81 1020.1
20260831061447 73 103 0.0 0.0 0.00 0.00 0.00 81 1020.2
20260831060951 74 103 0.0 0.0 0.00 0.00 0.00 80 1020.1
20260831060459 74 103 0.0 0.0 0.00 0.00 0.00 80 1020.2
20260831055947 74 103 0.0 0.0 0.00 0.00 0.00 80 1020.3
20260831055447 74 103 0.0 0.0 0.00 0.00 0.00 80 1020.4
20260831054947 74 103 0.0 0.0 0.00 0.00 0.00 80 1020.4
20260831054447 74 103 0.0 0.0 0.00 0.00 0.00 80 1020.5
20260831053947 74 103 0.0 0.0 0.00 0.00 0.00 79 1020.5
20260831053447 74 103 0.0 0.0 0.00 0.00 0.00 79 1020.5
20260831052947 74 103 0.0 0.0 0.00 0.00 0.00 79 1020.5
20260831052447 74 103 0.0 0.0 0.00 0.00 0.00 79 1020.6
20260831051947 75 103 0.0 0.0 0.00 0.00 0.00 79 1020.6
20260831051452 75 103 0.0 0.0 0.00 0.00 0.00 79 1020.5
20260831050959 75 103 0.0 0.0 0.00 0.00 0.00 79 1020.6
20260831050450 75 103 0.0 0.0 0.00 0.00 0.00 79 1020.5
20260831045958 75 103 0.0 0.0 0.00 0.00 0.00 79 1020.4
20260831045506 75 103 0.0 0.0 0.00 0.00 0.00 78 1020.5
20260831045001 75 103 0.0 0.0 0.00 0.00 0.00 78 1020.5
20260831044508 76 103 0.0 0.0 0.00 0.00 0.00 77 1020.5
20260831044016 76 103 0.0 0.0 0.00 0.00 0.00 77 1020.5
20260831043511 76 103 0.0 0.0 0.00 0.00 0.00 77 1020.4
20260831042947 76 103 0.0 0.0 0.00 0.00 0.00 77 1020.4
20260831042447 76 103 0.0 0.0 0.00 0.00 0.00 76 1020.5
20260831041947 76 103 0.0 0.0 0.00 0.00 0.00 76 1020.6
20260831041447 76 103 0.0 0.0 0.00 0.00 0.00 76 1020.5
20260831040947 77 103 0.0 0.0 0.00 0.00 0.00 76 1020.5
20260831040452 77 103 0.0 0.0 0.00 0.00 0.00 76 1020.5
20260831035959 77 103 0.0 0.0 0.00 0.00 0.00 75 1020.5
20260831035447 77 103 0.0 0.0 0.00 0.00 0.00 75 1020.5
20260831034947 77 103 0.0 0.0 0.00 0.00 0.00 75 1020.5
20260831034451 77 103 0.0 0.0 0.00 0.00 0.00 75 1020.5
20260831033959 78 103 0.0 0.0 0.00 0.00 0.00 74 1020.5
20260831033506 78 103 0.0 0.0 0.00 0.00 0.00 74 1020.5
20260831033002 78 103 0.0 0.0 0.00 0.00 0.00 74 1020.5
20260831032457 78 103 0.0 0.0 0.00 0.00 0.00 74 1020.6
20260831032005 78 103 0.0 0.0 0.00 0.00 0.00 73 1020.6
20260831031512 78 103 0.0 0.0 0.00 0.00 0.00 73 1020.5
20260831030956 78 103 0.0 0.0 0.00 0.00 0.00 73 1020.6
20260831030504 78 103 0.0 0.0 0.00 0.00 0.00 73 1020.6
20260831025959 78 103 0.0 0.0 0.00 0.00 0.00 73 1020.5
20260831025447 79 103 0.0 0.0 0.00 0.00 0.00 73 1020.6
20260831024947 79 103 0.0 0.0 0.00 0.00 0.00 73 1020.6
20260831024447 79 103 0.0 0.0 0.00 0.00 0.00 72 1020.6
20260831023948 79 103 0.0 0.0 0.00 0.00 0.00 71 1020.6
20260831023455 79 103 0.0 0.0 0.00 0.00 0.00 71 1020.6
20260831023003 79 103 0.0 0.0 0.00 0.00 0.00 71 1020.6
20260831022511 80 103 0.0 0.0 0.00 0.00 0.00 71 1020.5
20260831021947 80 103 0.0 0.0 0.00 0.00 0.00 70 1020.5
20260831021447 80 103 0.0 0.0 0.00 0.00 0.00 70 1020.6
20260831020947 80 103 0.0 0.0 0.00 0.00 0.00 70 1020.6
20260831020451 81 103 0.0 0.0 0.00 0.00 0.00 69 1020.6
20260831015959 81 103 0.0 0.0 0.00 0.00 0.00 69 1020.5
20260831015447 81 103 0.0 0.0 0.00 0.00 0.00 68 1020.4
20260831014951 82 103 0.0 0.0 0.00 0.00 0.00 68 1020.4
20260831014459 82 103 0.0 0.0 0.00 0.00 0.00 68 1020.4
20260831013949 82 103 0.0 0.0 0.00 0.00 0.00 67 1020.4
20260831013447 82 103 0.0 0.0 0.00 0.00 0.00 67 1020.4
20260831012947 82 103 0.0 0.0 0.00 0.00 0.00 66 1020.4
20260831012447 83 103 0.0 0.0 0.00 0.00 0.00 66 1020.3
20260831011949 83 103 0.0 0.0 0.00 0.00 0.00 66 1020.2
20260831011456 83 103 0.0 0.0 0.00 0.00 0.00 65 1020.1
20260831011004 83 103 0.0 0.0 0.00 0.00 0.00 64 1019.9
20260831010511 84 103 0.0 0.0 0.00 0.00 0.00 64 1020.0
20260831005947 84 103 0.0 0.0 0.00 0.00 0.00 64 1019.9
20260831005451 84 103 0.0 0.0 0.00 0.00 0.00 63 1019.8
20260831004959 84 103 0.0 0.0 0.00 0.00 0.00 62 1019.7
20260831004447 84 103 0.0 0.0 0.00 0.00 0.00 62 1019.7
20260831003951 85 103 0.0 0.0 0.00 0.00 0.00 61 1019.6
20260831003459 85 103 0.0 0.0 0.00 0.00 0.00 61 1019.5
20260831002947 85 103 0.0 0.0 0.00 0.00 0.00 61 1019.5
20260831002447 85 103 0.0 0.0 0.00 0.00 0.00 60 1019.5
20260831001947 85 103 0.0 0.0 0.00 0.00 0.00 60 1019.5
20260831001447 86 103 0.0 0.0 0.00 0.00 0.00 59 1019.4
20260831000947 86 103 0.0 0.0 0.00 0.00 0.00 59 1019.4
20260831000454 86 103 0.0 0.0 0.00 0.00 0.00 59 1019.5
20260831000000 86 103 0.0 0.0 0.00 0.00 0.00 59 1019.5
20260830235508 86 103 0.0 0.0 0.00 0.00 0.00 58 1019.5
20260830235015 86 103 0.0 0.0 0.00 0.00 0.00 58 1019.5
20260830234459 86 103 0.0 0.0 0.00 0.00 0.00 57 1019.4
20260830233947 87 103 0.0 0.0 0.00 0.00 0.00 57 1019.4
20260830233447 87 103 0.0 0.0 0.00 0.00 0.00 56 1019.3
20260830232947 87 103 0.0 0.0 0.00 0.00 0.00 56 1019.3
20260830232447 87 103 0.0 0.0 0.00 0.00 0.00 56 1019.2
20260830231947 87 103 0.0 0.0 0.00 0.00 0.00 55 1019.2
20260830231410 87 103 0.0 0.0 0.00 0.00 0.00 55 1019.1
20260830230850 87 103 0.0 0.0 0.00 0.00 0.00 55 1019.0
20260830230358 87 103 0.0 0.0 0.00 0.00 0.00 55 1019.0
20260830225846 87 103 0.0 0.0 0.00 0.00 0.00 54 1019.0
20260830225350 87 103 0.0 0.0 0.00 0.00 0.00 55 1019.0
20260830224858 87 103 0.0 0.0 0.00 0.00 0.00 55 1019.0
20260830224346 87 103 0.0 0.0 0.00 0.00 0.00 55 1019.0
20260830223846 87 103 0.0 0.0 0.00 0.00 0.00 55 1018.9
20260830223346 87 103 0.0 0.0 0.00 0.00 0.00 55 1018.9
20260830222846 87 103 0.0 0.0 0.00 0.00 0.00 55 1018.9
20260830222346 87 103 0.0 0.0 0.00 0.00 0.00 54 1018.9
20260830221846 87 103 0.0 0.0 0.00 0.00 0.00 56 1018.9
20260830221346 88 103 0.0 0.0 0.00 0.00 0.00 56 1018.8
20260830220846 88 103 0.0 0.0 0.00 0.00 0.00 55 1018.8
20260830220346 88 103 0.0 0.0 0.00 0.00 0.00 55 1018.9
20260830215846 88 103 0.0 0.0 0.00 0.00 0.00 54 1018.9
20260830215346 88 103 0.0 0.0 0.00 0.00 0.00 54 1019.0
20260830214848 88 103 0.0 0.0 0.00 0.00 0.00 55 1019.0
20260830214355 87 103 0.0 0.0 0.00 0.00 0.00 55 1019.0
20260830213903 88 103 0.0 0.0 0.00 0.00 0.00 56 1019.1
20260830213410 88 103 0.0 0.0 0.00 0.00 0.00 56 1019.1
20260830212846 88 103 0.0 1.0 0.00 0.00 0.00 56 1019.2
20260830212346 88 103 0.0 1.0 0.00 0.00 0.00 56 1019.2
20260830211846 88 103 0.0 1.0 0.00 0.00 0.00 58 1019.2
20260830211346 88 103 0.0 0.0 0.00 0.00 0.00 57 1019.2
20260830210851 88 103 0.0 0.0 0.00 0.00 0.00 56 1019.3
20260830210358 88 103 0.0 0.0 0.00 0.00 0.00 57 1019.4
20260830205846 88 103 0.0 0.0 0.00 0.00 0.00 56 1019.3
20260830205346 88 103 0.0 0.0 0.00 0.00 0.00 56 1019.2
20260830204850 88 103 0.0 1.0 0.00 0.00 0.00 56 1019.2
20260830204358 88 103 0.0 1.0 0.00 0.00 0.00 56 1019.4
20260830203846 88 103 0.0 0.0 0.00 0.00 0.00 56 1019.4
20260830203346 88 103 0.0 0.0 0.00 0.00 0.00 55 1019.4
20260830202846 88 103 0.0 0.0 0.00 0.00 0.00 56 1019.4
20260830202346 88 103 0.0 0.0 0.00 0.00 0.00 57 1019.4
20260830201846 87 103 0.0 2.0 0.00 0.00 0.00 58 1019.6
20260830201351 87 103 0.0 2.0 0.00 0.00 0.00 59 1019.7
20260830200858 87 103 0.0 4.0 0.00 0.00 0.00 59 1019.7
20260830200346 87 103 0.0 4.0 0.00 0.00 0.00 60 1019.7
20260830195846 86 103 0.0 1.0 0.00 0.00 0.00 61 1019.7
20260830195351 86 103 0.0 0.0 0.00 0.00 0.00 60 1019.9
20260830194858 86 103 0.0 0.0 0.00 0.00 0.00 59 1020.1
20260830194346 86 103 0.0 0.0 0.00 0.00 0.00 60 1020.2